User: anonymous   Login
Location: Sperry Observatory
(40.6664°N, 74.3236°W)
Time: 18:33:40
(UTC-04:00)
Language:

UOSAT-12 - Orbit

View from above orbital plane
View from above orbital plane
View from above satellite
View from above satellite

Ground track
Ground track

The orbit data is extracted from the following two-line orbital elements,

1 25693U 99021A   16120.84675130 -.00000005  00000-0  17922-4 0  9991
2 25693  64.5559 319.4947 0011926 211.3286 148.7109 14.80641995918960
Epoch (UTC): 29 April 2016 20:19:19
Eccentricity: 0.0011926
inclination: 64.5559°
perigee height: 619 km
apogee height: 635 km
right ascension of ascending node: 319.4947°
argument of perigee: 211.3286°
revolutions per day: 14.80641995
mean anomaly at epoch: 148.7109°
orbit number at epoch: 91896

The dashed part of the orbit path shows where the satellite is in the earth's shadow,  

DLR